This demonstration page uses our WeatherBlox Daily Observations layout. Learn more.

Left ArrowRight Arrow

53.62937, 11.41316

Hourly Observations for April 22, 2018

Temp ( °F °C ) Dew Point ( °F °C ) Humidity (%) Winds ( mph kmh ) Pressure ( in mb ) Visibility ( mi km ) Precip ( " mm )
6:50 am 06:50 Partly Cloudy with Fog 39 4 39 4 100 100 VRB 1 2 30.06 1018 30 48 N/A
7:20 am 07:20 Partly Cloudy with Fog 41 5 41 5 100 100 VRB 1 2 30.06 1018 30 48 N/A
7:50 am 07:50 Mostly Sunny 45 7 43 6 93 93 E 1 2 30.06 1018 7 11 N/A
8:20 am 08:20 Mostly Sunny 48 9 43 6 82 82 VRB 1 2 30.03 1017 7 11 N/A
8:50 am 08:50 Mostly Sunny 52 11 43 6 72 72 VRB 2 4 30.03 1017 7 11 N/A
9:20 am 09:20 Mostly Sunny 54 12 45 7 72 72 E 3 6 30.03 1017 7 11 N/A
9:50 am 09:50 Mostly Sunny 55 13 45 7 67 67 VRB 2 4 30.03 1017 7 11 N/A
10:20 am 10:20 Mostly Sunny 57 14 43 6 59 59 NE 3 6 30.03 1017 7 11 N/A
10:50 am 10:50 Mostly Sunny 59 15 43 6 55 55 ESE 3 6 30.03 1017 7 11 N/A
11:20 am 11:20 Mostly Sunny 59 15 41 5 51 51 VRB 3 6 30.00 1016 7 11 N/A
11:50 am 11:50 Mostly Sunny 61 16 43 6 52 52 NNE 3 6 30.00 1016 7 11 N/A
12:20 pm 12:20 Mostly Sunny 63 17 43 6 49 49 E 5 7 30.00 1016 7 11 N/A
12:50 pm 12:50 Mostly Sunny 63 17 45 7 52 52 E 7 11 29.97 1015 7 11 N/A
1:20 pm 13:20 Mostly Sunny 66 19 41 5 40 40 SE 6 9 29.97 1015 7 11 N/A
1:50 pm 13:50 Mostly Sunny 66 19 41 5 40 40 VRB 6 9 29.97 1015 7 11 N/A
2:20 pm 14:20 Mostly Sunny 66 19 37 3 35 35 SSE 6 9 29.94 1014 7 11 N/A
2:50 pm 14:50 Mostly Sunny 68 20 39 4 35 35 VRB 5 7 29.94 1014 7 11 N/A
3:20 pm 15:20 Mostly Sunny 68 20 39 4 35 35 ESE 6 9 29.94 1014 7 11 N/A
3:50 pm 15:50 Mostly Sunny 68 20 36 2 30 30 E 8 13 29.91 1013 7 11 N/A
4:20 pm 16:20 Mostly Sunny 68 20 39 4 35 35 E 9 15 29.88 1012 7 11 N/A
4:50 pm 16:50 Mostly Sunny 70 21 39 4 33 33 E 7 11 29.88 1012 7 11 N/A
5:20 pm 17:20 Mostly Sunny 68 20 50 10 53 53 E 9 15 29.85 1011 7 11 N/A
5:50 pm 17:50 Mostly Sunny 66 19 48 9 52 52 E 10 17 29.85 1011 7 11 N/A
6:20 pm 18:20 Mostly Sunny 64 18 48 9 56 56 ENE 10 17 29.85 1011 7 11 N/A
6:50 pm 18:50 Mostly Sunny 64 18 48 9 56 56 ENE 8 13 29.85 1011 7 11 N/A
7:20 pm 19:20 Mostly Sunny 63 17 48 9 59 59 NE 7 11 29.85 1011 7 11 N/A
7:50 pm 19:50 Mostly Sunny 59 15 48 9 68 68 ENE 8 13 29.83 1010 7 11 N/A
8:20 pm 20:20 Mostly Sunny 55 13 48 9 77 77 ENE 7 11 29.83 1010 7 11 N/A
8:50 pm 20:50 Mostly Clear 55 13 46 8 72 72 ENE 5 7 29.83 1010 7 11 N/A

Powered by AerisWeather